Time,TemperatureF,DewpointF,PressureIn,WindDirection,WindDirectionDegrees,WindSpeedMPH,WindSpeedGustMPH,Humidity,HourlyPrecipIn,Conditions,Clouds,dailyrainin,SoftwareType,DateUTC
2013-05-19 00:02:00,75.0,-99.9,30.05,SSE,163,13.0,15.0,-999,-99.99,,,-99.99,,2013-05-19 05:02:00,
2013-05-19 00:12:00,75.0,-99.9,30.05,SSE,164,12.0,14.0,-999,-99.99,,,-99.99,,2013-05-19 05:12:00,
2013-05-19 00:22:00,75.0,-99.9,30.06,South,177,11.0,14.0,-999,-99.99,,,-99.99,,2013-05-19 05:22:00,
2013-05-19 00:32:00,75.0,-99.9,30.06,South,176,11.0,14.0,-999,-99.99,,,-99.99,,2013-05-19 05:32:00,
2013-05-19 00:42:00,75.0,-99.9,30.06,South,173,10.0,15.0,-999,-99.99,,,-99.99,,2013-05-19 05:42:00,
2013-05-19 00:52:00,75.0,-99.9,30.06,South,172,13.0,15.0,-999,-99.99,,,-99.99,,2013-05-19 05:52:00,
2013-05-19 01:02:00,75.0,-99.9,30.05,South,172,12.0,15.0,-999,-99.99,,,-99.99,,2013-05-19 06:02:00,
2013-05-19 01:12:00,75.0,-99.9,30.05,South,173,12.0,15.0,-999,-99.99,,,-99.99,,2013-05-19 06:12:00,
2013-05-19 01:21:00,75.0,-99.9,30.05,South,174,11.0,14.0,-999,-99.99,,,-99.99,,2013-05-19 06:21:00,
2013-05-19 01:32:00,75.0,-99.9,30.05,South,178,11.0,14.0,-999,-99.99,,,-99.99,,2013-05-19 06:32:00,
2013-05-19 01:42:00,75.0,-99.9,30.04,South,179,12.0,15.0,-999,-99.99,,,-99.99,,2013-05-19 06:42:00,
2013-05-19 01:52:00,75.0,-99.9,30.04,South,182,11.0,15.0,-999,-99.99,,,-99.99,,2013-05-19 06:52:00,
2013-05-19 02:01:00,75.0,-99.9,30.04,South,177,11.0,14.0,-999,-99.99,,,-99.99,,2013-05-19 07:01:00,
2013-05-19 02:11:00,75.0,-99.9,30.04,South,178,11.0,15.0,-999,-99.99,,,-99.99,,2013-05-19 07:11:00,
2013-05-19 02:22:00,75.0,-99.9,30.04,South,174,11.0,13.0,-999,-99.99,,,-99.99,,2013-05-19 07:22:00,
2013-05-19 02:32:00,75.0,-99.9,30.03,South,171,10.0,13.0,-999,-99.99,,,-99.99,,2013-05-19 07:32:00,
2013-05-19 02:42:00,75.0,-99.9,30.03,South,169,11.0,12.0,-999,-99.99,,,-99.99,,2013-05-19 07:42:00,
2013-05-19 02:52:00,75.0,-99.9,30.03,SSE,167,11.0,13.0,-999,-99.99,,,-99.99,,2013-05-19 07:52:00,
2013-05-19 03:02:00,75.0,-99.9,30.03,South,173,10.0,14.0,-999,-99.99,,,-99.99,,2013-05-19 08:02:00,
2013-05-19 03:12:00,75.0,-99.9,30.03,South,171,12.0,14.0,-999,-99.99,,,-99.99,,2013-05-19 08:12:00,
2013-05-19 03:22:00,75.0,-99.9,30.02,South,170,12.0,14.0,-999,-99.99,,,-99.99,,2013-05-19 08:22:00,
2013-05-19 03:32:00,75.0,-99.9,30.03,South,170,11.0,14.0,-999,-99.99,,,-99.99,,2013-05-19 08:32:00,
2013-05-19 03:42:00,75.0,-99.9,30.03,South,174,10.0,13.0,-999,-99.99,,,-99.99,,2013-05-19 08:42:00,
2013-05-19 03:52:00,75.0,-99.9,30.04,South,174,11.0,14.0,-999,-99.99,,,-99.99,,2013-05-19 08:52:00,
2013-05-19 04:02:00,75.0,-99.9,30.04,South,183,12.0,13.0,-999,-99.99,,,-99.99,,2013-05-19 09:02:00,
2013-05-19 04:12:00,75.0,-99.9,30.04,South,182,11.0,14.0,-999,-99.99,,,-99.99,,2013-05-19 09:12:00,
2013-05-19 04:21:00,75.0,-99.9,30.05,South,178,11.0,14.0,-999,-99.99,,,-99.99,,2013-05-19 09:21:00,
2013-05-19 04:33:00,75.0,-99.9,30.05,South,177,11.0,14.0,-999,-99.99,,,-99.99,,2013-05-19 09:33:00,
2013-05-19 04:43:00,75.0,-99.9,30.05,South,176,10.0,14.0,-999,-99.99,,,-99.99,,2013-05-19 09:43:00,
2013-05-19 04:53:00,75.0,-99.9,30.05,South,176,11.0,13.0,-999,-99.99,,,-99.99,,2013-05-19 09:53:00,
2013-05-19 05:03:00,74.0,-99.9,30.05,South,174,10.0,12.0,-999,-99.99,,,-99.99,,2013-05-19 10:03:00,
2013-05-19 05:13:00,74.0,-99.9,30.05,South,171,9.0,12.0,-999,-99.99,,,-99.99,,2013-05-19 10:13:00,
2013-05-19 05:23:00,74.0,-99.9,30.05,South,172,9.0,11.0,-999,-99.99,,,-99.99,,2013-05-19 10:23:00,
2013-05-19 05:33:00,75.0,-99.9,30.05,South,171,11.0,12.0,-999,-99.99,,,-99.99,,2013-05-19 10:33:00,
2013-05-19 05:42:00,75.0,-99.9,30.06,South,175,10.0,13.0,-999,-99.99,,,-99.99,,2013-05-19 10:42:00,
2013-05-19 05:53:00,75.0,-99.9,30.06,South,178,9.0,12.0,-999,-99.99,,,-99.99,,2013-05-19 10:53:00,
2013-05-19 06:02:00,75.0,-99.9,30.06,South,175,10.0,12.0,-999,-99.99,,,-99.99,,2013-05-19 11:02:00,
2013-05-19 06:12:00,75.0,-99.9,30.06,SSE,164,9.0,13.0,-999,-99.99,,,-99.99,,2013-05-19 11:12:00,
2013-05-19 06:22:00,75.0,-99.9,30.06,SSE,163,11.0,12.0,-999,-99.99,,,-99.99,,2013-05-19 11:22:00,
2013-05-19 06:32:00,75.0,-99.9,30.06,SSE,167,10.0,11.0,-999,-99.99,,,-99.99,,2013-05-19 11:32:00,
2013-05-19 06:42:00,75.0,-99.9,30.07,South,171,9.0,11.0,-999,-99.99,,,-99.99,,2013-05-19 11:42:00,
2013-05-19 06:53:00,75.0,-99.9,30.07,South,174,9.0,11.0,-999,-99.99,,,-99.99,,2013-05-19 11:53:00,
2013-05-19 07:01:00,75.0,-99.9,30.07,South,172,8.0,12.0,-999,-99.99,,,-99.99,,2013-05-19 12:01:00,
2013-05-19 07:12:00,75.0,-99.9,30.07,South,180,10.0,12.0,-999,-99.99,,,-99.99,,2013-05-19 12:12:00,
2013-05-19 07:22:00,75.0,-99.9,30.08,South,184,10.0,13.0,-999,-99.99,,,-99.99,,2013-05-19 12:22:00,
2013-05-19 07:32:00,75.0,-99.9,30.08,South,181,9.0,13.0,-999,-99.99,,,-99.99,,2013-05-19 12:32:00,
2013-05-19 07:42:00,75.0,-99.9,30.08,South,175,10.0,12.0,-999,-99.99,,,-99.99,,2013-05-19 12:42:00,
2013-05-19 07:52:00,76.0,-99.9,30.08,South,175,11.0,13.0,-999,-99.99,,,-99.99,,2013-05-19 12:52:00,
2013-05-19 08:01:00,76.0,-99.9,30.08,SSE,160,11.0,13.0,-999,-99.99,,,-99.99,,2013-05-19 13:01:00,
2013-05-19 08:12:00,76.0,-99.9,30.08,SSE,163,11.0,12.0,-999,-99.99,,,-99.99,,2013-05-19 13:12:00,
2013-05-19 08:21:00,76.0,-99.9,30.08,SSE,167,10.0,13.0,-999,-99.99,,,-99.99,,2013-05-19 13:21:00,
2013-05-19 08:32:00,76.0,-99.9,30.08,SSE,164,10.0,12.0,-999,-99.99,,,-99.99,,2013-05-19 13:32:00,
2013-05-19 08:42:00,76.0,-99.9,30.08,SSE,164,11.0,13.0,-999,-99.99,,,-99.99,,2013-05-19 13:42:00,
2013-05-19 08:52:00,75.0,-99.9,30.07,SSE,158,11.0,12.0,-999,-99.99,,,-99.99,,2013-05-19 13:52:00,
2013-05-19 09:02:00,75.0,-99.9,30.07,South,170,11.0,12.0,-999,-99.99,,,-99.99,,2013-05-19 14:02:00,
2013-05-19 09:11:00,76.0,-99.9,30.07,SSE,166,9.0,11.0,-999,-99.99,,,-99.99,,2013-05-19 14:11:00,
2013-05-19 09:21:00,76.0,-99.9,30.07,SSE,167,10.0,12.0,-999,-99.99,,,-99.99,,2013-05-19 14:21:00,
2013-05-19 09:32:00,76.0,-99.9,30.07,South,172,10.0,12.0,-999,-99.99,,,-99.99,,2013-05-19 14:32:00,
2013-05-19 09:42:00,76.0,-99.9,30.07,South,179,11.0,13.0,-999,-99.99,,,-99.99,,2013-05-19 14:42:00,
2013-05-19 09:52:00,77.0,-99.9,30.07,South,174,8.0,10.0,-999,-99.99,,,-99.99,,2013-05-19 14:52:00,
2013-05-19 10:02:00,76.0,-99.9,30.07,SSE,159,9.0,11.0,-999,-99.99,,,-99.99,,2013-05-19 15:02:00,
2013-05-19 10:12:00,76.0,-99.9,30.08,SSE,160,9.0,10.0,-999,-99.99,,,-99.99,,2013-05-19 15:12:00,
2013-05-19 10:22:00,76.0,-99.9,30.08,SSE,154,9.0,11.0,-999,-99.99,,,-99.99,,2013-05-19 15:22:00,
2013-05-19 10:33:00,76.0,-99.9,30.07,SSE,152,9.0,10.0,-999,-99.99,,,-99.99,,2013-05-19 15:33:00,
2013-05-19 10:43:00,76.0,-99.9,30.07,SSE,151,9.0,9.0,-999,-99.99,,,-99.99,,2013-05-19 15:43:00,
2013-05-19 10:53:00,76.0,-99.9,30.07,SSE,153,9.0,9.0,-999,-99.99,,,-99.99,,2013-05-19 15:53:00,
2013-05-19 11:03:00,76.0,-99.9,30.08,SSE,159,7.0,9.0,-999,-99.99,,,-99.99,,2013-05-19 16:03:00,
2013-05-19 11:13:00,76.0,-99.9,30.08,SSE,159,9.0,10.0,-999,-99.99,,,-99.99,,2013-05-19 16:13:00,
2013-05-19 11:23:00,76.0,-99.9,30.08,SSE,160,9.0,11.0,-999,-99.99,,,-99.99,,2013-05-19 16:23:00,
2013-05-19 11:33:00,76.0,-99.9,30.08,SSE,155,7.0,9.0,-999,-99.99,,,-99.99,,2013-05-19 16:33:00,
2013-05-19 11:42:00,76.0,-99.9,30.08,SSE,158,7.0,9.0,-999,-99.99,,,-99.99,,2013-05-19 16:42:00,
2013-05-19 11:53:00,76.0,-99.9,30.08,SSE,152,8.0,10.0,-999,-99.99,,,-99.99,,2013-05-19 16:53:00,
2013-05-19 12:02:00,76.0,-99.9,30.08,SSE,147,9.0,10.0,-999,-99.99,,,-99.99,,2013-05-19 17:02:00,
2013-05-19 12:12:00,76.0,-99.9,30.08,SSE,148,9.0,11.0,-999,-99.99,,,-99.99,,2013-05-19 17:12:00,
2013-05-19 12:22:00,76.0,-99.9,30.08,SSE,151,10.0,11.0,-999,-99.99,,,-99.99,,2013-05-19 17:22:00,
2013-05-19 12:32:00,76.0,-99.9,30.08,SSE,154,8.0,11.0,-999,-99.99,,,-99.99,,2013-05-19 17:32:00,
2013-05-19 12:43:00,76.0,-99.9,30.08,SSE,155,9.0,12.0,-999,-99.99,,,-99.99,,2013-05-19 17:43:00,
2013-05-19 12:52:00,76.0,-99.9,30.08,SSE,160,10.0,11.0,-999,-99.99,,,-99.99,,2013-05-19 17:52:00,
2013-05-19 13:02:00,76.0,-99.9,30.08,SSE,158,10.0,11.0,-999,-99.99,,,-99.99,,2013-05-19 18:02:00,
2013-05-19 13:12:00,76.0,-99.9,30.08,SSE,155,9.0,11.0,-999,-99.99,,,-99.99,,2013-05-19 18:12:00,
2013-05-19 13:22:00,76.0,-99.9,30.08,SSE,155,10.0,11.0,-999,-99.99,,,-99.99,,2013-05-19 18:22:00,
2013-05-19 13:32:00,76.0,-99.9,30.07,SSE,150,10.0,11.0,-999,-99.99,,,-99.99,,2013-05-19 18:32:00,
2013-05-19 13:43:00,76.0,-99.9,30.07,SSE,147,10.0,11.0,-999,-99.99,,,-99.99,,2013-05-19 18:43:00,
2013-05-19 13:53:00,76.0,-99.9,30.07,SSE,147,10.0,11.0,-999,-99.99,,,-99.99,,2013-05-19 18:53:00,
2013-05-19 14:01:00,76.0,-99.9,30.06,SSE,152,10.0,11.0,-999,-99.99,,,-99.99,,2013-05-19 19:01:00,
2013-05-19 14:11:00,76.0,-99.9,30.06,SSE,154,9.0,10.0,-999,-99.99,,,-99.99,,2013-05-19 19:11:00,
2013-05-19 14:22:00,77.0,-99.9,30.06,SSE,160,9.0,11.0,-999,-99.99,,,-99.99,,2013-05-19 19:22:00,
2013-05-19 14:32:00,77.0,-99.9,30.06,SSE,165,9.0,11.0,-999,-99.99,,,-99.99,,2013-05-19 19:32:00,
2013-05-19 14:42:00,76.0,-99.9,30.06,SSE,152,9.0,11.0,-999,-99.99,,,-99.99,,2013-05-19 19:42:00,
2013-05-19 14:52:00,76.0,-99.9,30.05,SSE,149,9.0,11.0,-999,-99.99,,,-99.99,,2013-05-19 19:52:00,
2013-05-19 15:02:00,76.0,-99.9,30.05,SSE,157,9.0,11.0,-999,-99.99,,,-99.99,,2013-05-19 20:02:00,
2013-05-19 15:11:00,76.0,-99.9,30.05,SSE,158,10.0,11.0,-999,-99.99,,,-99.99,,2013-05-19 20:11:00,
2013-05-19 15:22:00,76.0,-99.9,30.05,SSE,162,10.0,11.0,-999,-99.99,,,-99.99,,2013-05-19 20:22:00,
2013-05-19 15:32:00,76.0,-99.9,30.05,SSE,151,9.0,10.0,-999,-99.99,,,-99.99,,2013-05-19 20:32:00,
2013-05-19 15:42:00,76.0,-99.9,30.04,SSE,148,9.0,9.0,-999,-99.99,,,-99.99,,2013-05-19 20:42:00,
2013-05-19 15:52:00,76.0,-99.9,30.04,SSE,153,7.0,8.0,-999,-99.99,,,-99.99,,2013-05-19 20:52:00,
2013-05-19 16:02:00,76.0,-99.9,30.04,SSE,151,7.0,8.0,-999,-99.99,,,-99.99,,2013-05-19 21:02:00,
2013-05-19 16:11:00,76.0,-99.9,30.04,SSE,159,7.0,8.0,-999,-99.99,,,-99.99,,2013-05-19 21:11:00,
2013-05-19 16:22:00,77.0,-99.9,30.04,SSE,163,7.0,9.0,-999,-99.99,,,-99.99,,2013-05-19 21:22:00,
2013-05-19 16:32:00,77.0,-99.9,30.04,South,172,6.0,9.0,-999,-99.99,,,-99.99,,2013-05-19 21:32:00,
2013-05-19 16:43:00,77.0,-99.9,30.03,SSE,162,8.0,9.0,-999,-99.99,,,-99.99,,2013-05-19 21:43:00,
2013-05-19 16:53:00,77.0,-99.9,30.04,SSE,163,7.0,9.0,-999,-99.99,,,-99.99,,2013-05-19 21:53:00,
2013-05-19 17:03:00,77.0,-99.9,30.04,SSE,164,6.0,9.0,-999,-99.99,,,-99.99,,2013-05-19 22:03:00,
2013-05-19 17:12:00,77.0,-99.9,30.04,SSE,161,8.0,9.0,-999,-99.99,,,-99.99,,2013-05-19 22:12:00,
2013-05-19 17:23:00,77.0,-99.9,30.04,SSE,149,7.0,8.0,-999,-99.99,,,-99.99,,2013-05-19 22:23:00,
2013-05-19 17:33:00,77.0,-99.9,30.03,SSE,147,7.0,9.0,-999,-99.99,,,-99.99,,2013-05-19 22:33:00,
2013-05-19 17:43:00,77.0,-99.9,30.03,SE,141,7.0,8.0,-999,-99.99,,,-99.99,,2013-05-19 22:43:00,
2013-05-19 17:53:00,76.0,-99.9,30.03,SE,137,7.0,9.0,-999,-99.99,,,-99.99,,2013-05-19 22:53:00,
2013-05-19 18:03:00,76.0,-99.9,30.04,SE,136,8.0,9.0,-999,-99.99,,,-99.99,,2013-05-19 23:03:00,
2013-05-19 18:12:00,76.0,-99.9,30.04,SE,126,9.0,10.0,-999,-99.99,,,-99.99,,2013-05-19 23:12:00,
2013-05-19 18:22:00,76.0,-99.9,30.03,SE,133,10.0,11.0,-999,-99.99,,,-99.99,,2013-05-19 23:22:00,
2013-05-19 18:32:00,76.0,-99.9,30.04,SE,130,9.0,10.0,-999,-99.99,,,-99.99,,2013-05-19 23:32:00,
2013-05-19 18:42:00,76.0,-99.9,30.03,SE,133,9.0,11.0,-999,-99.99,,,-99.99,,2013-05-19 23:42:00,
2013-05-19 18:53:00,76.0,-99.9,30.03,SE,127,10.0,10.0,-999,-99.99,,,-99.99,,2013-05-19 23:53:00,
2013-05-19 19:02:00,76.0,-99.9,30.04,ESE,123,9.0,10.0,-999,-99.99,,,-99.99,,2013-05-20 00:02:00,
2013-05-19 19:12:00,76.0,-99.9,30.04,SE,127,9.0,10.0,-999,-99.99,,,-99.99,,2013-05-20 00:12:00,
2013-05-19 19:22:00,76.0,-99.9,30.04,ESE,123,9.0,11.0,-999,-99.99,,,-99.99,,2013-05-20 00:22:00,
2013-05-19 19:32:00,76.0,-99.9,30.04,SE,126,10.0,11.0,-999,-99.99,,,-99.99,,2013-05-20 00:32:00,
2013-05-19 19:42:00,76.0,-99.9,30.04,SE,124,11.0,12.0,-999,-99.99,,,-99.99,,2013-05-20 00:42:00,
2013-05-19 19:52:00,76.0,-99.9,30.04,ESE,122,12.0,13.0,-999,-99.99,,,-99.99,,2013-05-20 00:52:00,
2013-05-19 20:01:00,76.0,-99.9,30.04,SE,124,10.0,13.0,-999,-99.99,,,-99.99,,2013-05-20 01:01:00,
2013-05-19 20:11:00,76.0,-99.9,30.04,SE,130,11.0,13.0,-999,-99.99,,,-99.99,,2013-05-20 01:11:00,
2013-05-19 20:22:00,76.0,-99.9,30.04,SE,126,11.0,12.0,-999,-99.99,,,-99.99,,2013-05-20 01:22:00,
2013-05-19 20:32:00,76.0,-99.9,30.04,SE,131,11.0,13.0,-999,-99.99,,,-99.99,,2013-05-20 01:32:00,
2013-05-19 20:42:00,76.0,-99.9,30.04,SE,126,10.0,12.0,-999,-99.99,,,-99.99,,2013-05-20 01:42:00,
2013-05-19 20:52:00,76.0,-99.9,30.05,SE,128,11.0,13.0,-999,-99.99,,,-99.99,,2013-05-20 01:52:00,
2013-05-19 21:02:00,76.0,-99.9,30.05,SE,134,11.0,12.0,-999,-99.99,,,-99.99,,2013-05-20 02:02:00,
2013-05-19 21:12:00,76.0,-99.9,30.06,SE,133,11.0,12.0,-999,-99.99,,,-99.99,,2013-05-20 02:12:00,
2013-05-19 21:22:00,76.0,-99.9,30.06,SE,137,11.0,12.0,-999,-99.99,,,-99.99,,2013-05-20 02:22:00,
2013-05-19 21:32:00,76.0,-99.9,30.06,SE,139,10.0,11.0,-999,-99.99,,,-99.99,,2013-05-20 02:32:00,
2013-05-19 21:42:00,76.0,-99.9,30.06,SSE,148,10.0,12.0,-999,-99.99,,,-99.99,,2013-05-20 02:42:00,
2013-05-19 21:52:00,76.0,-99.9,30.06,SSE,149,11.0,12.0,-999,-99.99,,,-99.99,,2013-05-20 02:52:00,
2013-05-19 22:02:00,76.0,-99.9,30.06,SSE,148,12.0,13.0,-999,-99.99,,,-99.99,,2013-05-20 03:02:00,
2013-05-19 22:12:00,76.0,-99.9,30.06,SSE,150,11.0,13.0,-999,-99.99,,,-99.99,,2013-05-20 03:12:00,
2013-05-19 22:22:00,76.0,-99.9,30.06,SSE,157,12.0,13.0,-999,-99.99,,,-99.99,,2013-05-20 03:22:00,
2013-05-19 22:33:00,76.0,-99.9,30.06,SSE,158,10.0,11.0,-999,-99.99,,,-99.99,,2013-05-20 03:33:00,
2013-05-19 22:43:00,76.0,-99.9,30.06,SSE,168,9.0,11.0,-999,-99.99,,,-99.99,,2013-05-20 03:43:00,
2013-05-19 22:53:00,76.0,-99.9,30.06,SSE,166,9.0,12.0,-999,-99.99,,,-99.99,,2013-05-20 03:53:00,
2013-05-19 23:03:00,76.0,-99.9,30.06,SSE,168,10.0,14.0,-999,-99.99,,,-99.99,,2013-05-20 04:03:00,
2013-05-19 23:13:00,76.0,-99.9,30.06,SSE,167,11.0,13.0,-999,-99.99,,,-99.99,,2013-05-20 04:13:00,
2013-05-19 23:23:00,76.0,-99.9,30.06,SSE,165,11.0,12.0,-999,-99.99,,,-99.99,,2013-05-20 04:23:00,
2013-05-19 23:33:00,75.0,-99.9,30.06,SSE,160,11.0,12.0,-999,-99.99,,,-99.99,,2013-05-20 04:33:00,
2013-05-19 23:43:00,75.0,-99.9,30.06,SSE,160,11.0,12.0,-999,-99.99,,,-99.99,,2013-05-20 04:43:00,
2013-05-19 23:53:00,75.0,-99.9,30.06,SSE,154,11.0,12.0,-999,-99.99,,,-99.99,,2013-05-20 04:53:00,